Location: Grange Rosano
(44.4500°N, 6.9667°E)
Time: 19:39:59
(UTC+00:00)

Cosmos 371 Rocket - Pass Details

Date: 26 May 2022
Orbit: 684 x 697 km, 74.0° (Epoch: 01 July)

Event Time Altitude Azimuth Distance (km) Brightness Sun altitude
Exits shadow 01:06:10 30° 261° (W) 1,246 4.3 -20.8°
Maximum altitude 01:07:38 37° 298° (WNW) 1,087 4.3 -20.7°
Drops below altitude 10° 01:12:08 10° 6° (N) 2,157 6.9 -20.4°
Sets 01:14:37 0° 15° (NNE) 3,076 8.1 -20.2°
